Time,TemperatureF,DewpointF,PressureIn,WindDirection,WindDirectionDegrees,WindSpeedMPH,WindSpeedGustMPH,Humidity,HourlyPrecipIn,Conditions,Clouds,dailyrainin,SoftwareType,DateUTC
2013-10-22 00:02:00,48.6,33.3,27.91,WNW,293,0.0,0.0,56,0.00,,,0.00,WSDL version 420,2013-10-22 04:02:00,
2013-10-22 00:06:00,48.6,33.6,27.91,WNW,293,0.0,0.0,56,0.00,,,0.00,WSDL version 420,2013-10-22 04:06:00,
2013-10-22 00:11:00,48.6,33.6,27.91,WNW,293,0.0,0.0,56,0.00,,,0.00,WSDL version 420,2013-10-22 04:11:00,
2013-10-22 00:16:00,48.7,34.0,27.91,WNW,293,0.0,0.0,57,0.00,,,0.00,WSDL version 420,2013-10-22 04:16:00,
2013-10-22 00:21:00,48.7,34.2,27.91,WNW,293,0.0,0.0,57,0.00,,,0.00,WSDL version 420,2013-10-22 04:21:00,
2013-10-22 00:26:00,48.7,34.4,27.91,WNW,293,0.0,0.0,57,0.00,,,0.00,WSDL version 420,2013-10-22 04:26:00,
2013-10-22 00:31:00,48.7,34.6,27.91,WNW,293,0.0,0.0,58,0.00,,,0.00,WSDL version 420,2013-10-22 04:31:00,
2013-10-22 00:36:00,48.7,34.2,27.91,WNW,293,0.0,0.0,57,0.00,,,0.00,WSDL version 420,2013-10-22 04:36:00,
2013-10-22 00:41:00,48.6,34.1,27.91,WNW,293,0.0,0.0,57,0.00,,,0.00,WSDL version 420,2013-10-22 04:41:00,
2013-10-22 00:46:00,48.4,33.9,27.91,WNW,293,0.0,0.0,57,0.00,,,0.00,WSDL version 420,2013-10-22 04:46:00,
2013-10-22 00:51:00,48.4,33.9,27.91,WNW,293,0.0,0.0,57,0.00,,,0.00,WSDL version 420,2013-10-22 04:51:00,
2013-10-22 00:56:00,48.5,33.9,27.91,WNW,293,0.0,0.0,57,0.00,,,0.00,WSDL version 420,2013-10-22 04:56:00,
2013-10-22 01:01:00,48.1,33.6,27.91,WNW,293,0.0,0.0,57,0.00,,,0.00,WSDL version 420,2013-10-22 05:01:00,
2013-10-22 01:06:00,47.6,33.3,27.91,WNW,293,0.0,0.0,57,0.00,,,0.00,WSDL version 420,2013-10-22 05:06:00,
2013-10-22 01:11:00,47.5,33.5,27.91,WNW,293,0.0,0.0,58,0.00,,,0.00,WSDL version 420,2013-10-22 05:11:00,
2013-10-22 01:16:00,47.5,33.7,27.91,WNW,293,0.0,0.0,59,0.00,,,0.00,WSDL version 420,2013-10-22 05:16:00,
2013-10-22 01:21:00,47.4,33.8,27.91,WNW,293,0.0,0.0,59,0.00,,,0.00,WSDL version 420,2013-10-22 05:21:00,
2013-10-22 01:26:00,47.3,33.7,27.91,WNW,293,0.0,0.0,59,0.00,,,0.00,WSDL version 420,2013-10-22 05:26:00,
2013-10-22 01:31:00,47.5,33.9,27.91,WNW,293,0.0,0.0,59,0.00,,,0.00,WSDL version 420,2013-10-22 05:31:00,
2013-10-22 01:36:00,47.7,34.3,27.91,WNW,293,0.0,0.0,60,0.00,,,0.00,WSDL version 420,2013-10-22 05:36:00,
2013-10-22 01:41:00,47.5,34.4,27.91,WNW,293,0.0,0.0,60,0.00,,,0.00,WSDL version 420,2013-10-22 05:41:00,
2013-10-22 01:46:00,47.7,34.5,27.91,WNW,293,0.0,0.0,60,0.00,,,0.00,WSDL version 420,2013-10-22 05:46:00,
2013-10-22 01:51:00,47.5,34.4,27.91,WNW,293,0.0,0.0,60,0.00,,,0.00,WSDL version 420,2013-10-22 05:51:00,
2013-10-22 01:57:00,47.7,34.9,27.91,WNW,293,0.0,0.0,61,0.00,,,0.00,WSDL version 420,2013-10-22 05:57:00,
2013-10-22 02:02:00,47.7,34.9,27.91,WNW,293,0.0,0.0,61,0.00,,,0.00,WSDL version 420,2013-10-22 06:02:00,
2013-10-22 02:07:00,47.7,34.7,27.91,WNW,293,0.0,0.0,60,0.00,,,0.00,WSDL version 420,2013-10-22 06:07:00,
2013-10-22 02:12:00,47.3,34.5,27.91,WNW,293,0.0,0.0,61,0.00,,,0.00,WSDL version 420,2013-10-22 06:12:00,
2013-10-22 02:17:00,47.4,34.6,27.91,WNW,293,0.0,0.0,61,0.00,,,0.00,WSDL version 420,2013-10-22 06:17:00,
2013-10-22 02:22:00,47.3,34.5,27.91,WNW,293,0.0,0.0,61,0.00,,,0.00,WSDL version 420,2013-10-22 06:22:00,
2013-10-22 02:27:00,47.5,34.7,27.91,WNW,293,0.0,0.0,61,0.00,,,0.00,WSDL version 420,2013-10-22 06:27:00,
2013-10-22 02:32:00,47.4,34.9,27.91,WNW,293,0.0,0.0,62,0.00,,,0.00,WSDL version 420,2013-10-22 06:32:00,
2013-10-22 02:37:00,47.3,35.0,27.91,WNW,293,0.0,0.0,62,0.00,,,0.00,WSDL version 420,2013-10-22 06:37:00,
2013-10-22 02:42:00,47.5,35.1,27.91,WNW,293,0.0,0.0,62,0.00,,,0.00,WSDL version 420,2013-10-22 06:42:00,
2013-10-22 02:47:00,47.7,35.7,27.91,WNW,293,0.0,0.0,63,0.00,,,0.00,WSDL version 420,2013-10-22 06:47:00,
2013-10-22 02:52:00,47.7,35.7,27.91,WNW,293,0.0,0.0,63,0.00,,,0.00,WSDL version 420,2013-10-22 06:52:00,
2013-10-22 02:57:00,47.7,35.8,27.91,WNW,293,0.0,0.0,63,0.00,,,0.00,WSDL version 420,2013-10-22 06:57:00,
2013-10-22 03:02:00,47.7,35.8,27.91,WNW,293,0.0,0.0,63,0.00,,,0.00,WSDL version 420,2013-10-22 07:02:00,
2013-10-22 03:07:00,47.8,36.3,27.91,WNW,293,0.0,0.0,64,-99.99,,,-99.99,WSDL version 420,2013-10-22 07:07:00,
2013-10-22 03:12:00,48.0,36.4,27.91,WNW,293,0.0,0.0,64,0.00,,,0.00,WSDL version 420,2013-10-22 07:12:00,
2013-10-22 03:17:00,47.9,36.4,27.91,WNW,293,0.0,0.0,64,0.00,,,0.00,WSDL version 420,2013-10-22 07:17:00,
2013-10-22 03:22:00,48.0,36.4,27.91,WNW,293,0.0,0.0,64,0.00,,,0.00,WSDL version 420,2013-10-22 07:22:00,
2013-10-22 03:27:00,48.1,36.8,27.91,WNW,293,0.0,0.0,64,0.00,,,0.00,WSDL version 420,2013-10-22 07:27:00,
2013-10-22 03:32:00,48.2,37.0,27.91,WNW,293,0.0,0.0,65,0.00,,,0.00,WSDL version 420,2013-10-22 07:32:00,
2013-10-22 03:37:00,48.2,37.0,27.91,WNW,293,0.0,0.0,65,0.00,,,0.00,WSDL version 420,2013-10-22 07:37:00,
2013-10-22 03:42:00,48.2,37.0,27.91,WNW,293,0.0,0.0,65,0.00,,,0.00,WSDL version 420,2013-10-22 07:42:00,
2013-10-22 03:47:00,47.8,36.7,27.91,WNW,293,0.0,0.0,65,0.00,,,0.00,WSDL version 420,2013-10-22 07:47:00,
2013-10-22 03:52:00,47.8,36.8,27.88,WNW,293,0.0,0.0,66,0.00,,,0.00,WSDL version 420,2013-10-22 07:52:00,
2013-10-22 03:57:00,48.0,37.2,27.88,WNW,293,0.0,0.0,66,0.00,,,0.00,WSDL version 420,2013-10-22 07:57:00,
2013-10-22 04:02:00,48.0,37.2,27.88,WNW,293,0.0,0.0,66,0.00,,,0.00,WSDL version 420,2013-10-22 08:02:00,
2013-10-22 04:07:00,48.0,37.2,27.88,North,0,0.0,0.0,66,0.00,,,0.00,WSDL version 420,2013-10-22 08:07:00,
2013-10-22 04:12:00,48.0,37.2,27.88,WNW,293,0.0,0.0,66,0.00,,,0.00,WSDL version 420,2013-10-22 08:12:00,
2013-10-22 04:17:00,48.0,37.2,27.88,WNW,293,0.0,0.0,66,0.00,,,0.00,WSDL version 420,2013-10-22 08:17:00,
2013-10-22 04:22:00,47.9,37.1,27.88,WNW,293,0.0,0.0,66,0.00,,,0.00,WSDL version 420,2013-10-22 08:22:00,
2013-10-22 04:27:00,47.8,37.0,27.88,WNW,293,0.0,0.0,66,0.00,,,0.00,WSDL version 420,2013-10-22 08:27:00,
2013-10-22 04:34:00,47.8,37.0,27.88,WNW,293,0.0,0.0,66,0.00,,,0.00,WSDL version 420,2013-10-22 08:34:00,
2013-10-22 04:39:00,47.8,37.0,27.88,WNW,293,0.0,0.0,66,0.00,,,0.00,WSDL version 420,2013-10-22 08:39:00,
2013-10-22 04:44:00,47.8,37.0,27.88,WNW,293,0.0,0.0,66,0.00,,,0.00,WSDL version 420,2013-10-22 08:44:00,
2013-10-22 04:49:00,47.6,36.8,27.88,WNW,293,0.0,0.0,66,0.00,,,0.00,WSDL version 420,2013-10-22 08:49:00,
2013-10-22 04:54:00,47.5,36.7,27.88,WNW,293,0.0,0.0,66,0.00,,,0.00,WSDL version 420,2013-10-22 08:54:00,
2013-10-22 04:59:00,47.3,36.5,27.88,WNW,293,0.0,0.0,66,0.00,,,0.00,WSDL version 420,2013-10-22 08:59:00,
2013-10-22 05:04:00,47.3,36.7,27.88,WNW,293,0.0,0.0,66,0.00,,,0.00,WSDL version 420,2013-10-22 09:04:00,
2013-10-22 05:09:00,47.3,36.7,27.88,WNW,293,0.0,0.0,67,0.00,,,0.00,WSDL version 420,2013-10-22 09:09:00,
2013-10-22 05:14:00,47.3,36.9,27.88,WNW,293,0.0,0.0,67,0.00,,,0.00,WSDL version 420,2013-10-22 09:14:00,
2013-10-22 05:19:00,47.1,36.7,27.88,WNW,293,0.0,0.0,67,0.00,,,0.00,WSDL version 420,2013-10-22 09:19:00,
2013-10-22 05:24:00,46.9,36.6,27.88,WNW,293,0.0,0.0,67,0.00,,,0.00,WSDL version 420,2013-10-22 09:24:00,
2013-10-22 05:29:00,47.1,36.7,27.88,WNW,293,0.0,0.0,67,0.00,,,0.00,WSDL version 420,2013-10-22 09:29:00,
2013-10-22 05:34:00,47.2,37.0,27.88,WNW,293,0.0,0.0,68,0.00,,,0.00,WSDL version 420,2013-10-22 09:34:00,
2013-10-22 05:39:00,47.4,37.3,27.88,WNW,293,0.0,0.0,68,0.00,,,0.00,WSDL version 420,2013-10-22 09:39:00,
2013-10-22 05:44:00,47.3,37.3,27.88,SE,128,0.5,1.6,68,0.00,,,0.00,WSDL version 420,2013-10-22 09:44:00,
2013-10-22 05:49:00,47.4,37.4,27.88,East,90,0.6,1.6,68,0.00,,,0.00,WSDL version 420,2013-10-22 09:49:00,
2013-10-22 05:54:00,47.5,37.5,27.88,East,90,0.0,1.6,68,0.00,,,0.00,WSDL version 420,2013-10-22 09:54:00,
2013-10-22 05:59:00,47.5,37.5,27.88,East,79,0.4,1.1,68,0.00,,,0.00,WSDL version 420,2013-10-22 09:59:00,
2013-10-22 06:04:00,47.7,37.9,27.88,ENE,68,0.0,0.9,69,0.00,,,0.00,WSDL version 420,2013-10-22 10:04:00,
2013-10-22 06:09:00,48.0,38.3,27.88,ENE,68,0.0,0.0,69,0.00,,,0.00,WSDL version 420,2013-10-22 10:09:00,
2013-10-22 06:14:00,48.4,38.7,27.88,SSW,203,0.0,0.0,69,0.00,,,0.00,WSDL version 420,2013-10-22 10:14:00,
2013-10-22 06:19:00,48.2,38.5,27.88,SSW,203,0.0,0.0,69,0.00,,,0.00,WSDL version 420,2013-10-22 10:19:00,
2013-10-22 06:24:00,48.3,38.6,27.88,SSW,203,0.0,0.0,69,0.00,,,0.00,WSDL version 420,2013-10-22 10:24:00,
2013-10-22 06:29:00,48.4,38.7,27.88,East,90,0.0,0.0,69,0.00,,,0.00,WSDL version 420,2013-10-22 10:29:00,
2013-10-22 06:34:00,48.4,38.7,27.88,East,90,0.0,0.0,69,0.00,,,0.00,WSDL version 420,2013-10-22 10:34:00,
2013-10-22 06:39:00,48.4,38.8,27.88,East,90,0.0,0.0,69,0.00,,,0.00,WSDL version 420,2013-10-22 10:39:00,
2013-10-22 06:44:00,48.6,38.9,27.88,East,90,0.0,0.0,69,0.00,,,0.00,WSDL version 420,2013-10-22 10:44:00,
2013-10-22 06:49:00,48.7,39.3,27.88,East,79,0.0,0.0,70,0.00,,,0.00,WSDL version 420,2013-10-22 10:49:00,
2013-10-22 06:54:00,49.1,39.8,27.88,ENE,68,0.7,1.3,70,0.00,,,0.00,WSDL version 420,2013-10-22 10:54:00,
2013-10-22 06:59:00,49.5,40.1,27.88,ESE,120,0.7,1.3,70,0.00,,,0.00,WSDL version 420,2013-10-22 10:59:00,
2013-10-22 07:04:00,49.6,40.2,27.88,NE,53,0.4,1.1,70,0.00,,,0.00,WSDL version 420,2013-10-22 11:04:00,
2013-10-22 07:09:00,49.8,40.2,27.88,West,266,0.8,1.6,69,0.00,,,0.00,WSDL version 420,2013-10-22 11:09:00,
2013-10-22 07:14:00,50.0,40.2,27.88,WNW,293,0.7,2.5,69,0.00,,,0.00,WSDL version 420,2013-10-22 11:14:00,
2013-10-22 07:19:00,50.2,40.4,27.88,NW,315,0.0,2.5,69,0.00,,,0.00,WSDL version 420,2013-10-22 11:19:00,
2013-10-22 07:24:00,50.3,40.4,27.88,NNW,338,0.7,1.1,68,0.00,,,0.00,WSDL version 420,2013-10-22 11:24:00,
2013-10-22 07:29:00,50.4,40.2,27.88,NNW,338,0.0,1.1,68,0.00,,,0.00,WSDL version 420,2013-10-22 11:29:00,
2013-10-22 07:34:00,50.4,40.2,27.88,NNW,338,0.0,0.0,68,0.00,,,0.00,WSDL version 420,2013-10-22 11:34:00,
2013-10-22 07:39:00,50.4,40.2,27.88,NW,315,0.3,1.3,68,0.00,,,0.00,WSDL version 420,2013-10-22 11:39:00,
2013-10-22 07:44:00,50.3,40.1,27.88,WNW,293,0.0,1.3,68,0.00,,,0.00,WSDL version 420,2013-10-22 11:44:00,
2013-10-22 07:49:00,50.0,39.9,27.88,WNW,293,0.0,0.0,68,0.00,,,0.00,WSDL version 420,2013-10-22 11:49:00,
2013-10-22 07:54:00,50.2,40.0,27.88,WNW,293,0.0,0.0,68,0.00,,,0.00,WSDL version 420,2013-10-22 11:54:00,
2013-10-22 07:59:00,50.2,40.0,27.88,NNE,23,1.1,1.1,68,0.00,,,0.00,WSDL version 420,2013-10-22 11:59:00,
2013-10-22 08:04:00,50.2,40.0,27.88,NNE,23,1.1,1.1,68,0.00,,,0.00,WSDL version 420,2013-10-22 12:04:00,
2013-10-22 08:09:00,50.2,40.0,27.88,NNE,23,1.1,1.1,68,0.00,,,0.00,WSDL version 420,2013-10-22 12:09:00,
2013-10-22 08:14:00,50.3,40.1,27.88,NNW,338,0.0,1.1,68,0.00,,,0.00,WSDL version 420,2013-10-22 12:14:00,
2013-10-22 08:21:00,50.5,40.7,27.88,NNW,338,0.0,0.0,69,0.00,,,0.00,WSDL version 420,2013-10-22 12:21:00,
2013-10-22 08:26:00,50.5,40.8,27.88,NNW,338,0.0,0.0,69,0.00,,,0.00,WSDL version 420,2013-10-22 12:26:00,
2013-10-22 08:31:00,50.8,40.9,27.88,South,180,0.0,0.0,68,0.00,,,0.00,WSDL version 420,2013-10-22 12:31:00,
2013-10-22 08:36:00,50.9,40.7,27.88,WNW,293,0.0,0.0,68,0.00,,,0.00,WSDL version 420,2013-10-22 12:36:00,
2013-10-22 08:41:00,51.0,40.8,27.88,NNW,338,0.0,0.0,68,0.00,,,0.00,WSDL version 420,2013-10-22 12:41:00,
2013-10-22 08:46:00,51.1,40.9,27.88,NNW,338,0.0,0.0,68,0.00,,,0.00,WSDL version 420,2013-10-22 12:46:00,
2013-10-22 08:51:00,51.1,41.3,27.88,NNW,338,0.0,0.0,69,0.00,,,0.00,WSDL version 420,2013-10-22 12:51:00,
2013-10-22 08:56:00,51.3,41.3,27.88,NW,326,0.6,1.1,68,0.00,,,0.00,WSDL version 420,2013-10-22 12:56:00,
2013-10-22 09:01:00,51.4,41.3,27.88,NNW,338,2.9,2.9,68,0.00,,,0.00,WSDL version 420,2013-10-22 13:01:00,
2013-10-22 09:06:00,51.6,41.4,27.88,SW,236,0.0,2.9,68,0.00,,,0.00,WSDL version 420,2013-10-22 13:06:00,
2013-10-22 09:11:00,51.7,41.5,27.88,NNW,338,0.0,2.9,68,0.00,,,0.00,WSDL version 420,2013-10-22 13:11:00,
2013-10-22 09:16:00,51.9,41.7,27.88,NW,315,0.7,1.3,68,0.00,,,0.00,WSDL version 420,2013-10-22 13:16:00,
2013-10-22 09:21:00,52.0,41.8,27.88,West,270,0.7,1.3,68,0.00,,,0.00,WSDL version 420,2013-10-22 13:21:00,
2013-10-22 09:26:00,52.3,41.8,27.88,West,259,0.0,1.3,67,0.00,,,0.00,WSDL version 420,2013-10-22 13:26:00,
2013-10-22 09:31:00,52.6,42.0,27.88,WNW,293,0.6,1.3,67,0.00,,,0.00,WSDL version 420,2013-10-22 13:31:00,
2013-10-22 09:36:00,53.1,42.4,27.88,West,263,0.4,1.3,67,0.00,,,0.00,WSDL version 420,2013-10-22 13:36:00,
2013-10-22 09:41:00,53.7,42.7,27.88,SW,225,0.0,1.3,66,0.00,,,0.00,WSDL version 420,2013-10-22 13:41:00,
2013-10-22 09:46:00,54.3,43.2,27.88,SW,225,0.9,0.9,66,0.00,,,0.00,WSDL version 420,2013-10-22 13:46:00,
2013-10-22 09:51:00,54.4,43.3,27.88,SE,135,1.6,2.2,66,0.00,,,0.00,WSDL version 420,2013-10-22 13:51:00,
2013-10-22 09:56:00,54.5,43.0,27.88,SSE,158,1.2,2.2,65,0.00,,,0.00,WSDL version 420,2013-10-22 13:56:00,
2013-10-22 10:01:00,54.5,43.0,27.88,NW,315,0.9,1.6,65,0.00,,,0.00,WSDL version 420,2013-10-22 14:01:00,
2013-10-22 10:06:00,54.5,42.7,27.88,West,270,1.0,2.2,64,0.00,,,0.00,WSDL version 420,2013-10-22 14:06:00,
2013-10-22 10:11:00,54.5,42.6,27.88,NW,304,0.7,2.2,64,0.00,,,0.00,WSDL version 420,2013-10-22 14:11:00,
2013-10-22 10:16:00,54.6,42.6,27.88,West,259,0.4,2.2,64,0.00,,,0.00,WSDL version 420,2013-10-22 14:16:00,
2013-10-22 10:21:00,55.2,43.3,27.88,South,173,1.0,2.9,64,0.00,,,0.00,WSDL version 420,2013-10-22 14:21:00,
2013-10-22 10:26:00,56.1,43.7,27.88,SSW,203,1.9,3.1,63,0.00,,,0.00,WSDL version 420,2013-10-22 14:26:00,
2013-10-22 10:31:00,56.1,43.5,27.88,WNW,293,0.0,3.6,62,0.00,,,0.00,WSDL version 420,2013-10-22 14:31:00,
2013-10-22 10:36:00,56.4,43.6,27.88,WNW,300,0.4,3.6,62,0.00,,,0.00,WSDL version 420,2013-10-22 14:36:00,
2013-10-22 10:41:00,56.8,43.8,27.88,WNW,293,1.3,2.7,61,0.00,,,0.00,WSDL version 420,2013-10-22 14:41:00,
2013-10-22 10:46:00,57.1,43.5,27.88,SW,233,1.6,2.7,60,0.00,,,0.00,WSDL version 420,2013-10-22 14:46:00,
2013-10-22 10:51:00,57.7,43.7,27.88,WNW,293,1.6,2.5,59,0.00,,,0.00,WSDL version 420,2013-10-22 14:51:00,
2013-10-22 10:56:00,57.7,43.5,27.88,SSW,208,1.6,3.1,59,0.00,,,0.00,WSDL version 420,2013-10-22 14:56:00,
2013-10-22 11:01:00,57.7,43.1,27.88,SSW,195,1.7,3.1,58,0.00,,,0.00,WSDL version 420,2013-10-22 15:01:00,
2013-10-22 11:06:00,57.7,43.0,27.88,WSW,248,1.3,2.7,58,0.00,,,0.00,WSDL version 420,2013-10-22 15:06:00,
2013-10-22 11:11:00,58.0,42.9,27.88,SW,225,0.4,2.7,57,0.00,,,0.00,WSDL version 420,2013-10-22 15:11:00,
2013-10-22 11:16:00,58.3,42.8,27.88,WNW,293,2.5,2.5,56,0.00,,,0.00,WSDL version 420,2013-10-22 15:16:00,
2013-10-22 11:21:00,58.8,43.2,27.88,SSW,203,0.9,2.5,56,0.00,,,0.00,WSDL version 420,2013-10-22 15:21:00,
2013-10-22 11:26:00,59.6,43.3,27.88,SE,135,3.2,3.8,54,0.00,,,0.00,WSDL version 420,2013-10-22 15:26:00,
2013-10-22 11:31:00,59.6,43.0,27.88,SW,233,2.4,3.8,54,0.00,,,0.00,WSDL version 420,2013-10-22 15:31:00,
2013-10-22 11:36:00,58.7,42.1,27.88,NNW,338,2.9,3.8,54,0.00,,,0.00,WSDL version 420,2013-10-22 15:36:00,
2013-10-22 11:41:00,58.2,41.6,27.88,NNW,329,1.6,3.8,54,0.00,,,0.00,WSDL version 420,2013-10-22 15:41:00,
2013-10-22 11:46:00,58.2,41.4,27.88,NW,304,1.8,3.6,54,0.00,,,0.00,WSDL version 420,2013-10-22 15:46:00,
2013-10-22 11:51:00,58.8,42.1,27.88,NE,45,5.1,6.0,53,0.00,,,0.00,WSDL version 420,2013-10-22 15:51:00,
2013-10-22 11:56:00,59.4,42.1,27.88,NNW,338,3.1,6.0,52,0.00,,,0.00,WSDL version 420,2013-10-22 15:56:00,
2013-10-22 12:01:00,59.4,42.0,27.88,West,278,0.4,4.7,52,0.00,,,0.00,WSDL version 420,2013-10-22 16:01:00,
2013-10-22 12:06:00,59.4,41.8,27.88,SW,225,2.0,3.1,52,0.00,,,0.00,WSDL version 420,2013-10-22 16:06:00,
2013-10-22 12:11:00,59.1,41.3,27.88,SSW,203,3.4,3.4,51,0.00,,,0.00,WSDL version 420,2013-10-22 16:11:00,
2013-10-22 12:16:00,59.3,41.2,27.88,NNW,345,2.4,3.4,51,0.00,,,0.00,WSDL version 420,2013-10-22 16:16:00,
2013-10-22 12:21:00,58.9,41.2,27.85,WNW,293,1.6,3.1,52,0.00,,,0.00,WSDL version 420,2013-10-22 16:21:00,
2013-10-22 12:26:00,59.1,41.1,27.85,SSW,203,1.0,3.1,51,0.00,,,0.00,WSDL version 420,2013-10-22 16:26:00,
2013-10-22 12:31:00,59.4,41.3,27.85,WSW,248,1.5,2.2,51,0.00,,,0.00,WSDL version 420,2013-10-22 16:31:00,
2013-10-22 12:36:00,59.7,41.6,27.85,SW,225,2.0,2.7,51,0.00,,,0.00,WSDL version 420,2013-10-22 16:36:00,
2013-10-22 12:41:00,59.8,41.7,27.85,WSW,248,2.6,3.1,51,0.00,,,0.00,WSDL version 420,2013-10-22 16:41:00,
2013-10-22 12:46:00,60.4,42.0,27.85,NW,323,2.2,3.8,50,0.00,,,0.00,WSDL version 420,2013-10-22 16:46:00,
2013-10-22 12:51:00,60.6,41.7,27.85,WSW,255,1.4,3.8,49,0.00,,,0.00,WSDL version 420,2013-10-22 16:51:00,
2013-10-22 12:56:00,61.0,42.0,27.85,NW,315,1.8,3.1,50,0.00,,,0.00,WSDL version 420,2013-10-22 16:56:00,
2013-10-22 13:01:00,60.5,41.8,27.85,WNW,293,1.3,3.1,50,0.00,,,0.00,WSDL version 420,2013-10-22 17:01:00,
2013-10-22 13:06:00,60.6,41.5,27.85,NNW,338,3.8,3.8,49,0.00,,,0.00,WSDL version 420,2013-10-22 17:06:00,
2013-10-22 13:11:00,60.6,41.3,27.85,WNW,287,2.9,3.8,49,0.00,,,0.00,WSDL version 420,2013-10-22 17:11:00,
2013-10-22 13:16:00,60.6,41.7,27.85,NW,308,2.6,3.6,50,0.00,,,0.00,WSDL version 420,2013-10-22 17:16:00,
2013-10-22 13:21:00,60.1,41.1,27.82,NW,323,2.0,3.1,50,0.00,,,0.00,WSDL version 420,2013-10-22 17:21:00,
2013-10-22 13:26:00,59.8,41.0,27.82,West,278,2.5,2.9,50,0.00,,,0.00,WSDL version 420,2013-10-22 17:26:00,
2013-10-22 13:31:00,60.1,41.2,27.82,WNW,293,2.7,2.9,50,0.00,,,0.00,WSDL version 420,2013-10-22 17:31:00,
2013-10-22 13:36:00,60.0,41.3,27.82,NNW,338,1.3,2.9,50,0.00,,,0.00,WSDL version 420,2013-10-22 17:36:00,
2013-10-22 13:41:00,59.9,41.2,27.82,North,11,3.0,3.6,50,0.00,,,0.00,WSDL version 420,2013-10-22 17:41:00,
2013-10-22 13:46:00,59.8,41.2,27.82,WNW,285,2.2,3.6,50,0.00,,,0.00,WSDL version 420,2013-10-22 17:46:00,
2013-10-22 13:51:00,59.7,41.1,27.82,SSW,195,2.6,3.4,50,0.00,,,0.00,WSDL version 420,2013-10-22 17:51:00,
2013-10-22 13:56:00,59.7,41.0,27.82,West,270,0.7,3.4,50,0.00,,,0.00,WSDL version 420,2013-10-22 17:56:00,
2013-10-22 14:01:00,60.6,41.8,27.82,SW,225,4.3,4.9,50,0.00,,,0.00,WSDL version 420,2013-10-22 18:01:00,
2013-10-22 14:06:00,60.7,41.7,27.82,WSW,248,3.8,4.9,49,0.00,,,0.00,WSDL version 420,2013-10-22 18:06:00,
2013-10-22 14:11:00,60.8,41.5,27.82,West,270,2.0,3.8,49,0.00,,,0.00,WSDL version 420,2013-10-22 18:11:00,
2013-10-22 14:16:00,61.2,41.9,27.82,West,281,2.2,2.5,49,0.00,,,0.00,WSDL version 420,2013-10-22 18:16:00,
2013-10-22 14:21:00,60.8,41.5,27.79,SSW,203,1.3,2.7,49,0.00,,,0.00,WSDL version 420,2013-10-22 18:21:00,
2013-10-22 14:26:00,60.6,41.1,27.79,ESE,113,1.3,3.8,49,0.00,,,0.00,WSDL version 420,2013-10-22 18:26:00,
2013-10-22 14:31:00,61.2,41.4,27.79,South,188,2.7,3.8,48,0.00,,,0.00,WSDL version 420,2013-10-22 18:31:00,
2013-10-22 14:36:00,62.3,42.6,27.79,NW,315,1.9,3.4,48,0.00,,,0.00,WSDL version 420,2013-10-22 18:36:00,
2013-10-22 14:41:00,62.2,42.3,27.79,SSE,165,2.2,2.7,48,0.00,,,0.00,WSDL version 420,2013-10-22 18:41:00,
2013-10-22 14:46:00,61.2,41.4,27.79,NW,304,1.1,2.9,48,0.00,,,0.00,WSDL version 420,2013-10-22 18:46:00,
2013-10-22 14:51:00,61.2,41.3,27.79,West,263,1.3,2.9,48,0.00,,,0.00,WSDL version 420,2013-10-22 18:51:00,
2013-10-22 14:56:00,61.5,41.6,27.79,NW,308,0.4,3.4,48,0.00,,,0.00,WSDL version 420,2013-10-22 18:56:00,
2013-10-22 15:01:00,61.5,41.5,27.79,WSW,248,1.9,4.3,47,0.00,,,0.00,WSDL version 420,2013-10-22 19:01:00,
2013-10-22 15:06:00,61.2,41.0,27.79,West,263,2.6,4.3,48,0.00,,,0.00,WSDL version 420,2013-10-22 19:06:00,
2013-10-22 15:11:00,60.9,40.8,27.79,SW,225,1.4,2.9,48,0.00,,,0.00,WSDL version 420,2013-10-22 19:11:00,
2013-10-22 15:16:00,60.9,41.1,27.79,NW,315,2.0,3.1,48,0.00,,,0.00,WSDL version 420,2013-10-22 19:16:00,
2013-10-22 15:21:00,60.4,40.7,27.79,West,278,3.3,4.3,48,0.00,,,0.00,WSDL version 420,2013-10-22 19:21:00,
2013-10-22 15:26:00,60.3,40.7,27.79,West,281,1.6,4.3,49,0.00,,,0.00,WSDL version 420,2013-10-22 19:26:00,
2013-10-22 15:31:00,60.4,41.2,27.79,WNW,293,0.9,3.6,49,0.00,,,0.00,WSDL version 420,2013-10-22 19:31:00,
2013-10-22 15:36:00,60.2,40.8,27.79,SSW,203,2.7,2.7,49,0.00,,,0.00,WSDL version 420,2013-10-22 19:36:00,
2013-10-22 15:41:00,60.0,40.8,27.79,West,278,2.1,3.1,49,0.00,,,0.00,WSDL version 420,2013-10-22 19:41:00,
2013-10-22 15:46:00,59.7,40.5,27.79,NW,315,0.9,3.1,49,0.00,,,0.00,WSDL version 420,2013-10-22 19:46:00,
2013-10-22 15:51:00,59.7,40.5,27.79,WNW,293,1.9,3.1,49,0.00,,,0.00,WSDL version 420,2013-10-22 19:51:00,
2013-10-22 15:56:00,59.7,40.5,27.79,WNW,293,2.5,3.4,49,0.00,,,0.00,WSDL version 420,2013-10-22 19:56:00,
2013-10-22 16:01:00,59.7,40.5,27.79,WNW,293,3.4,3.4,49,0.00,,,0.00,WSDL version 420,2013-10-22 20:01:00,
2013-10-22 16:06:00,59.8,40.6,27.79,SSE,158,0.0,3.4,49,0.00,,,0.00,WSDL version 420,2013-10-22 20:06:00,
2013-10-22 16:11:00,59.8,40.6,27.79,SSW,203,2.0,2.0,49,0.00,,,0.00,WSDL version 420,2013-10-22 20:11:00,
2013-10-22 16:16:00,59.7,40.5,27.79,NNW,338,3.4,3.4,49,0.00,,,0.00,WSDL version 420,2013-10-22 20:16:00,
2013-10-22 16:21:00,59.7,40.5,27.79,NNW,338,2.5,3.6,49,0.00,,,0.00,WSDL version 420,2013-10-22 20:21:00,
2013-10-22 16:26:00,59.6,40.4,27.79,NNW,338,2.5,3.6,49,0.00,,,0.00,WSDL version 420,2013-10-22 20:26:00,
2013-10-22 16:31:00,59.5,40.4,27.79,WNW,293,1.3,2.5,49,0.00,,,0.00,WSDL version 420,2013-10-22 20:31:00,
2013-10-22 16:36:00,59.5,40.4,27.79,NW,304,0.7,2.5,49,0.00,,,0.00,WSDL version 420,2013-10-22 20:36:00,
2013-10-22 16:41:00,59.4,40.3,27.79,WNW,293,1.6,1.6,49,0.00,,,0.00,WSDL version 420,2013-10-22 20:41:00,
2013-10-22 16:46:00,59.4,40.2,27.79,WSW,248,1.1,1.6,49,0.00,,,0.00,WSDL version 420,2013-10-22 20:46:00,
2013-10-22 16:51:00,59.3,40.2,27.79,WSW,248,1.1,1.1,49,0.00,,,0.00,WSDL version 420,2013-10-22 20:51:00,
2013-10-22 16:56:00,59.2,40.1,27.79,WSW,248,1.1,1.1,49,0.00,,,0.00,WSDL version 420,2013-10-22 20:56:00,
2013-10-22 17:01:00,59.1,39.9,27.79,NNW,338,2.5,2.5,49,0.00,,,0.00,WSDL version 420,2013-10-22 21:01:00,
2013-10-22 17:06:00,58.9,40.1,27.76,SE,143,0.4,2.5,50,0.00,,,0.00,WSDL version 420,2013-10-22 21:06:00,
2013-10-22 17:11:00,58.8,40.2,27.76,NE,45,0.3,1.3,50,0.00,,,0.00,WSDL version 420,2013-10-22 21:11:00,
2013-10-22 17:16:00,58.6,40.4,27.76,North,349,1.2,2.5,51,0.00,,,0.00,WSDL version 420,2013-10-22 21:16:00,
2013-10-22 17:21:00,58.6,40.5,27.76,NW,323,1.1,2.5,51,0.00,,,0.00,WSDL version 420,2013-10-22 21:21:00,
2013-10-22 17:26:00,58.3,40.3,27.76,WNW,293,1.6,2.2,51,0.00,,,0.00,WSDL version 420,2013-10-22 21:26:00,
2013-10-22 17:31:00,58.3,40.3,27.76,WNW,293,1.3,2.2,51,0.00,,,0.00,WSDL version 420,2013-10-22 21:31:00,
2013-10-22 17:36:00,58.2,40.2,27.76,NW,315,1.1,2.2,51,0.00,,,0.00,WSDL version 420,2013-10-22 21:36:00,
2013-10-22 17:41:00,58.1,40.1,27.76,NW,315,1.1,1.6,51,0.00,,,0.00,WSDL version 420,2013-10-22 21:41:00,
2013-10-22 17:46:00,58.1,40.1,27.76,West,278,0.7,1.1,51,0.00,,,0.00,WSDL version 420,2013-10-22 21:46:00,
2013-10-22 17:56:00,57.9,40.4,27.76,WNW,293,1.4,3.4,52,0.00,,,0.00,WSDL version 420,2013-10-22 21:56:00,
2013-10-22 18:01:00,57.9,40.2,27.76,SSE,158,2.5,3.4,52,0.00,,,0.00,WSDL version 420,2013-10-22 22:01:00,
2013-10-22 18:06:00,57.7,40.3,27.76,WNW,293,1.1,2.5,52,0.00,,,0.00,WSDL version 420,2013-10-22 22:06:00,
2013-10-22 18:11:00,57.6,40.1,27.76,West,270,1.1,2.9,52,0.00,,,0.00,WSDL version 420,2013-10-22 22:11:00,
2013-10-22 18:16:00,57.6,40.1,27.76,NW,308,0.4,2.9,52,0.00,,,0.00,WSDL version 420,2013-10-22 22:16:00,
2013-10-22 18:21:00,57.4,40.1,27.76,NE,56,0.0,1.3,53,0.00,,,0.00,WSDL version 420,2013-10-22 22:21:00,
2013-10-22 18:26:00,57.4,40.4,27.76,ESE,113,0.0,1.3,53,0.00,,,0.00,WSDL version 420,2013-10-22 22:26:00,
2013-10-22 18:31:00,57.2,40.2,27.76,WNW,293,0.0,0.0,53,0.00,,,0.00,WSDL version 420,2013-10-22 22:31:00,
2013-10-22 18:36:00,57.2,40.2,27.76,WNW,293,0.0,0.0,53,0.00,,,0.00,WSDL version 420,2013-10-22 22:36:00,
2013-10-22 18:41:00,57.0,40.5,27.76,WNW,293,0.0,0.0,54,0.00,,,0.00,WSDL version 420,2013-10-22 22:41:00,
2013-10-22 18:46:00,56.8,40.5,27.76,WNW,293,0.0,0.0,55,0.00,,,0.00,WSDL version 420,2013-10-22 22:46:00,
2013-10-22 18:51:00,56.7,40.7,27.76,WNW,293,0.0,0.0,55,0.00,,,0.00,WSDL version 420,2013-10-22 22:51:00,
2013-10-22 18:56:00,56.7,40.7,27.76,WNW,293,0.0,0.0,55,0.00,,,0.00,WSDL version 420,2013-10-22 22:56:00,
2013-10-22 19:01:00,56.5,40.7,27.76,WNW,293,0.0,0.0,56,0.00,,,0.00,WSDL version 420,2013-10-22 23:01:00,
2013-10-22 19:06:00,56.3,40.8,27.76,WNW,293,0.0,0.0,56,0.00,,,0.00,WSDL version 420,2013-10-22 23:06:00,
2013-10-22 19:11:00,56.3,40.8,27.76,WNW,293,0.0,0.0,56,0.00,,,0.00,WSDL version 420,2013-10-22 23:11:00,
2013-10-22 19:16:00,56.3,41.3,27.76,WNW,293,0.0,0.0,57,0.00,,,0.00,WSDL version 420,2013-10-22 23:16:00,
2013-10-22 19:21:00,56.0,41.0,27.76,WNW,293,0.0,0.0,57,0.00,,,0.00,WSDL version 420,2013-10-22 23:21:00,
2013-10-22 19:26:00,55.6,40.7,27.76,WNW,293,0.0,0.0,57,0.00,,,0.00,WSDL version 420,2013-10-22 23:26:00,
2013-10-22 19:31:00,55.5,40.7,27.76,WNW,293,0.0,0.0,58,0.00,,,0.00,WSDL version 420,2013-10-22 23:31:00,
2013-10-22 19:36:00,55.4,40.9,27.76,WNW,293,0.0,0.0,58,0.00,,,0.00,WSDL version 420,2013-10-22 23:36:00,
2013-10-22 19:42:00,55.1,40.6,27.76,WNW,293,0.0,0.0,58,0.00,,,0.00,WSDL version 420,2013-10-22 23:42:00,
2013-10-22 19:47:00,55.0,40.8,27.76,WNW,293,0.0,0.0,59,0.00,,,0.00,WSDL version 420,2013-10-22 23:47:00,
2013-10-22 19:52:00,54.7,40.7,27.76,WNW,293,0.0,0.0,59,0.00,,,0.00,WSDL version 420,2013-10-22 23:52:00,
2013-10-22 19:57:00,54.7,40.7,27.76,WNW,293,0.0,0.0,59,0.00,,,0.00,WSDL version 420,2013-10-22 23:57:00,
2013-10-22 20:02:00,54.7,40.9,27.76,WNW,293,0.0,0.0,60,0.00,,,0.00,WSDL version 420,2013-10-23 00:02:00,
2013-10-22 20:07:00,54.5,40.9,27.76,WNW,293,0.0,0.0,60,0.00,,,0.00,WSDL version 420,2013-10-23 00:07:00,
2013-10-22 20:12:00,54.5,40.9,27.76,WNW,293,0.0,0.0,60,0.00,,,0.00,WSDL version 420,2013-10-23 00:12:00,
2013-10-22 20:17:00,54.5,41.1,27.76,WNW,293,0.0,0.0,61,0.00,,,0.00,WSDL version 420,2013-10-23 00:17:00,
2013-10-22 20:22:00,54.5,41.3,27.76,WNW,293,0.0,0.0,61,0.00,,,0.00,WSDL version 420,2013-10-23 00:22:00,
2013-10-22 20:27:00,54.5,41.3,27.76,WNW,293,0.0,0.0,61,0.00,,,0.00,WSDL version 420,2013-10-23 00:27:00,
2013-10-22 20:32:00,54.5,41.3,27.76,WNW,293,0.0,0.0,61,0.00,,,0.00,WSDL version 420,2013-10-23 00:32:00,
2013-10-22 20:39:00,54.4,41.3,27.76,WNW,293,0.0,0.0,61,0.00,,,0.00,WSDL version 420,2013-10-23 00:39:00,
2013-10-22 20:44:00,54.3,41.2,27.76,WNW,293,0.0,0.0,61,0.00,,,0.00,WSDL version 420,2013-10-23 00:44:00,
2013-10-22 20:49:00,54.0,41.0,27.76,WNW,293,0.0,0.0,62,0.00,,,0.00,WSDL version 420,2013-10-23 00:49:00,
2013-10-22 20:54:00,53.6,40.9,27.76,WNW,293,0.0,0.0,62,0.00,,,0.00,WSDL version 420,2013-10-23 00:54:00,
2013-10-22 20:59:00,53.6,40.9,27.76,WNW,293,0.0,0.0,62,0.00,,,0.00,WSDL version 420,2013-10-23 00:59:00,
2013-10-22 21:05:00,53.4,41.2,27.76,WNW,293,0.0,0.0,63,0.00,,,0.00,WSDL version 420,2013-10-23 01:05:00,
2013-10-22 21:10:00,53.1,40.9,27.76,WNW,293,0.0,0.0,63,0.00,,,0.00,WSDL version 420,2013-10-23 01:10:00,
2013-10-22 21:15:00,52.9,40.6,27.76,WNW,293,0.0,0.0,63,0.00,,,0.00,WSDL version 420,2013-10-23 01:15:00,
2013-10-22 21:20:00,53.1,40.8,27.76,WNW,293,0.0,0.0,63,0.00,,,0.00,WSDL version 420,2013-10-23 01:20:00,
2013-10-22 21:25:00,53.0,40.7,27.76,WNW,293,0.0,0.0,63,0.00,,,0.00,WSDL version 420,2013-10-23 01:25:00,
2013-10-22 21:30:00,53.0,40.9,27.76,WNW,293,0.0,0.0,63,0.00,,,0.00,WSDL version 420,2013-10-23 01:30:00,
2013-10-22 21:35:00,52.9,40.6,27.76,WNW,293,0.0,0.0,63,0.00,,,0.00,WSDL version 420,2013-10-23 01:35:00,
2013-10-22 21:42:00,52.7,40.7,27.76,WNW,293,0.0,0.0,64,0.00,,,0.00,WSDL version 420,2013-10-23 01:42:00,
2013-10-22 21:47:00,52.6,40.8,27.76,WNW,293,0.0,0.0,64,0.00,,,0.00,WSDL version 420,2013-10-23 01:47:00,
2013-10-22 21:52:00,52.3,40.5,27.76,WNW,293,0.0,0.0,64,0.00,,,0.00,WSDL version 420,2013-10-23 01:52:00,
2013-10-22 21:57:00,52.3,40.5,27.76,WNW,293,0.0,0.0,64,0.00,,,0.00,WSDL version 420,2013-10-23 01:57:00,
2013-10-22 22:02:00,52.3,40.7,27.76,WNW,293,0.0,0.0,65,0.00,,,0.00,WSDL version 420,2013-10-23 02:02:00,
2013-10-22 22:07:00,52.2,40.8,27.76,WNW,293,0.0,0.0,65,0.00,,,0.00,WSDL version 420,2013-10-23 02:07:00,
2013-10-22 22:12:00,52.3,41.1,27.76,WNW,293,0.0,0.0,66,0.00,,,0.00,WSDL version 420,2013-10-23 02:12:00,
2013-10-22 22:17:00,52.5,41.4,27.76,WNW,293,0.0,0.0,66,-99.99,,,-99.99,WSDL version 420,2013-10-23 02:17:00,
2013-10-22 22:22:00,52.5,41.5,27.76,WNW,293,0.0,0.0,66,0.00,,,0.00,WSDL version 420,2013-10-23 02:22:00,
2013-10-22 22:27:00,52.4,41.4,27.76,WNW,293,0.0,0.0,66,0.00,,,0.00,WSDL version 420,2013-10-23 02:27:00,
2013-10-22 22:32:00,52.3,41.3,27.76,WNW,293,0.0,0.0,66,0.00,,,0.00,WSDL version 420,2013-10-23 02:32:00,
2013-10-22 22:37:00,52.3,41.3,27.76,WNW,293,0.0,0.0,66,0.00,,,0.00,WSDL version 420,2013-10-23 02:37:00,
2013-10-22 22:43:00,52.4,41.4,27.76,WNW,293,0.0,0.0,66,0.00,,,0.00,WSDL version 420,2013-10-23 02:43:00,
2013-10-22 22:48:00,52.2,41.2,27.76,WNW,293,0.0,0.0,66,0.00,,,0.00,WSDL version 420,2013-10-23 02:48:00,
2013-10-22 22:53:00,52.2,41.5,27.76,WNW,293,0.0,0.0,67,0.00,,,0.00,WSDL version 420,2013-10-23 02:53:00,
2013-10-22 22:58:00,52.0,41.4,27.76,WNW,293,0.0,0.0,67,0.00,,,0.00,WSDL version 420,2013-10-23 02:58:00,
2013-10-22 23:08:00,52.1,41.7,27.73,WNW,293,0.0,0.0,68,0.00,,,0.00,WSDL version 420,2013-10-23 03:08:00,
2013-10-22 23:13:00,52.0,41.8,27.73,WNW,293,0.0,0.0,68,0.00,,,0.00,WSDL version 420,2013-10-23 03:13:00,
2013-10-22 23:18:00,52.1,41.9,27.73,WNW,293,0.0,0.0,68,0.00,,,0.00,WSDL version 420,2013-10-23 03:18:00,
2013-10-22 23:23:00,52.2,42.1,27.76,WNW,293,0.0,0.0,69,0.00,,,0.00,WSDL version 420,2013-10-23 03:23:00,
2013-10-22 23:28:00,52.2,42.3,27.76,WNW,293,0.0,0.0,69,0.00,,,0.00,WSDL version 420,2013-10-23 03:28:00,
2013-10-22 23:33:00,52.0,42.1,27.76,WNW,293,0.0,0.0,69,0.00,,,0.00,WSDL version 420,2013-10-23 03:33:00,
2013-10-22 23:38:00,52.2,42.7,27.73,WNW,293,0.0,0.0,70,0.00,,,0.00,WSDL version 420,2013-10-23 03:38:00,
2013-10-22 23:43:00,52.2,42.8,27.73,WNW,293,0.0,0.0,71,0.00,,,0.00,WSDL version 420,2013-10-23 03:43:00,
2013-10-22 23:48:00,52.2,43.1,27.73,North,-999,-999.0,-999.0,71,0.00,,,0.00,WSDL version 420,2013-10-23 03:48:00,
2013-10-22 23:53:00,52.3,43.2,27.73,North,-999,-999.0,-999.0,71,0.00,,,0.00,WSDL version 420,2013-10-23 03:53:00,
2013-10-22 23:58:00,52.3,43.2,27.73,North,-999,-999.0,-999.0,71,0.00,,,0.00,WSDL version 420,2013-10-23 03:58:00,